Tracking 22779 objects as of 12-Apr-2021
HD Live streaming from Space Station
objects crossing your sky now

OPS 9332 (IDSCS 17)

Track OPS 9332 (IDSCS 17) now!
OPS 9332 (IDSCS 17) is classified as:


NORAD ID: 2863
Int'l Code: 1967-066B
Perigee: 33,034.1 km
Apogee: 33,554.8 km
Inclination: 2.0 °
Period: 1,310.3 minutes
Semi major axis: 39665 km
RCS: 0.6309 m2 (medium)
Launch date: July 1, 1967
Source: United States (US)
Launch site: AIR FORCE EASTERN TEST RANGE (AFETR)
aabbcc
Your satellite tracking list
Your tracking list is empty




NASA's NSSDC Master Catalog

Two Line Element Set (TLE):
1 02863U 67066B   21101.72341191 -.00000061  00000-0  00000-0 0  9995
2 02863   1.9849 261.2011 0065641  40.9415 336.4671  1.09896532103928
Source of the keplerian elements: AFSPC